User: anonymous   Login
Location: *
(41.7492°S, 135.4150°W)
Time: 18:44:34
(UTC+00:00)
Language:

Cosmos 839 Rocket - Orbit

View from above orbital plane
View from above orbital plane
View from above satellite
View from above satellite

Ground track
Ground track

The orbit data is extracted from the following two-line orbital elements,

1 09013U 76067B   21339.78166090 -.00000072  00000-0 -56799-4 0  9995
2 09013  65.8655  76.4943 0711077 154.3084 209.5111 12.35348196 47957
Epoch (UTC): 05 December 2021 18:45:35
Eccentricity: 0.0711077
inclination: 65.8655°
perigee height: 964 km
apogee height: 2088 km
right ascension of ascending node: 76.4943°
argument of perigee: 154.3084°
revolutions per day: 12.35348196
mean anomaly at epoch: 209.5111°
orbit number at epoch: 4795

The dashed part of the orbit path shows where the satellite is in the earth's shadow,  

DLR